Weather History for Ogallala, NE

Change the Weather History Date:

Saturday, October 5, 2013

  Actual Average Record
Temperature  
Mean Temperature 42 °F -  
Max Temperature 49 °F 70 °F 93 °F (1963)
Min Temperature 34 °F 38 °F 24 °F (1964)
Degree Days  
Heating Degree Days 24    
Moisture  
Dew Point 28 °F    
Average Humidity 61    
Maximum Humidity 90    
Minimum Humidity 41    
Precipitation  
Precipitation 0.00 in - - ()
Sea Level Pressure  
Sea Level Pressure 30.05 in    
Wind  
Wind Speed 27 mph (NW)    
Max Wind Speed 40 mph    
Max Gust Speed 53 mph    
Visibility 10 miles    
Events      
Averages and records for this station are not official NWS values.
T = Trace of Precipitation, MM = Missing Value Source: NWS Daily Summary

Daily Weather History Graph

Daily Weather History Graph

Search for Another Location

Airport:

Trip Planner

Search our weather history database for the weather conditions in past years. The results will help you decide how hot, cold, wet, or windy it might be!

Date:

Astronomy

Oct. 05, 2013 Rise Set
Actual Time 6:48 AM MDT 6:21 PM MDT
Civil Twilight 6:20 AM MDT 6:49 PM MDT
Nautical Twilight 5:48 AM MDT 7:21 PM MDT
Astronomical Twilight 5:16 AM MDT 7:53 PM MDT
Moon 7:30 AM MDT (10/5) 6:41 PM MDT (10/5)
Length of Visible Light 12h 28m
Length of Day
11h 33m
New Moon, 1% of the Moon is Illuminated
Oct 5
New Moon
Oct 11
First Quarter
Oct 18
Full
Oct 26
Last Quarter
Nov 3
New

Hourly Weather History & Observations

Time (MDT) Temp. Windchill Dew Point Humidity Pressure Visibility Wind Dir Wind Speed Gust Speed Precip Events Conditions
12:15 AM 36.7 °F 23.8 °F 29.8 °F 76% 30.02 in 10.0 mi NW 31.1 mph 39.1 mph N/A   Clear
12:35 AM 36.5 °F 22.9 °F 29.8 °F 77% 30.00 in 10.0 mi NW 34.5 mph 44.9 mph N/A   Clear
12:55 AM 36.9 °F 22.6 °F 29.8 °F 76% 29.99 in 10.0 mi NNW 40.3 mph 52.9 mph N/A   Clear
1:15 AM 37.0 °F 23.9 °F 30.0 °F 76% 30.02 in 10.0 mi NW 33.4 mph 43.7 mph N/A   Clear
1:35 AM 37.2 °F 25.4 °F 30.2 °F 76% 30.03 in 10.0 mi NW 26.5 mph 36.8 mph N/A   Scattered Clouds
1:55 AM 37.4 °F 25.6 °F 30.6 °F 76% 30.03 in 10.0 mi WNW 26.5 mph 38.0 mph N/A   Mostly Cloudy
2:15 AM 37.8 °F 25.9 °F 30.4 °F 75% 30.03 in 10.0 mi WNW 27.6 mph 36.8 mph N/A   Overcast
2:35 AM 37.8 °F 25.4 °F 30.6 °F 75% 30.04 in 10.0 mi WNW 29.9 mph 39.1 mph N/A   Overcast
2:55 AM 37.6 °F 26.6 °F 30.2 °F 75% 30.04 in 10.0 mi WNW 23.0 mph 35.7 mph N/A   Overcast
3:15 AM 37.6 °F 25.9 °F 29.5 °F 73% 30.04 in 10.0 mi WNW 26.5 mph 35.7 mph N/A   Overcast
3:35 AM 37.4 °F 26.4 °F 28.9 °F 71% 30.03 in 10.0 mi NW 23.0 mph 36.8 mph N/A   Overcast
3:55 AM 37.0 °F 24.9 °F 28.4 °F 71% 30.04 in 10.0 mi WNW 27.6 mph 40.3 mph N/A   Overcast
4:15 AM 37.0 °F 25.1 °F 28.6 °F 71% 30.04 in 10.0 mi WNW 26.5 mph 38.0 mph N/A   Overcast
4:35 AM 37.2 °F 25.2 °F 28.4 °F 70% 30.04 in 10.0 mi WNW 27.6 mph 40.3 mph N/A   Overcast
4:55 AM 37.0 °F 24.9 °F 28.2 °F 70% 30.04 in 10.0 mi WNW 27.6 mph 36.8 mph N/A   Overcast
5:15 AM 37.0 °F 24.7 °F 28.6 °F 71% 30.04 in 10.0 mi WNW 28.8 mph 35.7 mph N/A   Overcast
5:35 AM 36.9 °F 23.6 °F 28.9 °F 73% 30.04 in 10.0 mi WNW 33.4 mph 38.0 mph N/A   Overcast
5:55 AM 35.8 °F 23.2 °F 30.0 °F 80% 30.04 in 7.0 mi WNW 27.6 mph 34.5 mph N/A   Overcast
6:15 AM 34.9 °F 21.8 °F 31.1 °F 86% 30.05 in 4.0 mi WNW 28.8 mph 35.7 mph N/A   Overcast
6:35 AM 34.7 °F 22.5 °F 32.0 °F 90% 30.05 in 5.0 mi WNW 24.2 mph 29.9 mph N/A   Overcast
6:55 AM 35.4 °F 23.5 °F 30.9 °F 84% 30.04 in 10.0 mi WNW 24.2 mph 33.4 mph N/A   Overcast
7:15 AM 36.0 °F 23.9 °F 30.2 °F 80% 30.04 in 10.0 mi WNW 25.3 mph 32.2 mph N/A   Overcast
7:35 AM 36.7 °F 25.4 °F 29.7 °F 76% 30.05 in 10.0 mi WNW 23.0 mph 31.1 mph N/A   Overcast
7:55 AM 37.4 °F 26.4 °F 29.1 °F 72% 30.05 in 10.0 mi WNW 23.0 mph 33.4 mph N/A   Overcast
8:15 AM 38.1 °F 28.1 °F 28.2 °F 68% 30.04 in 10.0 mi WNW 19.6 mph 29.9 mph N/A   Overcast
8:35 AM 38.7 °F 27.3 °F 28.0 °F 66% 30.05 in 10.0 mi NW 26.5 mph 31.1 mph N/A   Overcast
8:55 AM 39.2 °F 27.8 °F 28.4 °F 65% 30.06 in 10.0 mi WNW 27.6 mph 34.5 mph N/A   Overcast
9:15 AM 39.4 °F 28.1 °F 28.8 °F 66% 30.06 in 10.0 mi WNW 27.6 mph 33.4 mph N/A   Overcast
9:35 AM 40.1 °F 30.5 °F 28.4 °F 63% 30.07 in 10.0 mi NW 20.7 mph 33.4 mph N/A   Overcast
9:55 AM 40.3 °F 29.7 °F 28.0 °F 62% 30.07 in 10.0 mi NW 25.3 mph 35.7 mph N/A   Overcast
10:15 AM 40.1 °F 29.5 °F 28.0 °F 62% 30.08 in 10.0 mi NW 25.3 mph 35.7 mph N/A   Overcast
10:35 AM 40.1 °F 29.7 °F 27.9 °F 62% 30.08 in 10.0 mi NW 24.2 mph 29.9 mph N/A   Overcast
10:55 AM 40.8 °F 30.9 °F 27.5 °F 59% 30.08 in 10.0 mi NW 23.0 mph 27.6 mph N/A   Overcast
11:15 AM 41.4 °F 31.6 °F 26.6 °F 56% 30.07 in 10.0 mi NW 23.0 mph 31.1 mph N/A   Overcast
11:35 AM 42.1 °F 32.6 °F 26.6 °F 54% 30.07 in 10.0 mi WNW 23.0 mph 28.8 mph N/A   Overcast
11:55 AM 43.2 °F 32.6 °F 26.1 °F 51% 30.07 in 10.0 mi WNW 31.1 mph 38.0 mph N/A   Overcast
12:15 PM 43.7 °F 34.1 °F 25.7 °F 49% 30.07 in 10.0 mi NW 26.5 mph 34.5 mph N/A   Overcast
12:35 PM 43.9 °F 34.5 °F 25.9 °F 49% 30.07 in 10.0 mi NW 25.3 mph 36.8 mph N/A   Overcast
12:55 PM 44.1 °F 35.0 °F 25.0 °F 47% 30.07 in 10.0 mi NW 24.2 mph 34.5 mph N/A   Overcast
1:15 PM 44.6 °F 35.5 °F 25.7 °F 48% 30.06 in 10.0 mi NW 25.3 mph 40.3 mph N/A   Overcast
1:35 PM 44.6 °F 36.1 °F 26.1 °F 48% 30.05 in 10.0 mi NW 21.9 mph 31.1 mph N/A   Overcast
1:55 PM 44.6 °F 35.5 °F 27.0 °F 50% 30.05 in 10.0 mi WNW 25.3 mph 33.4 mph N/A   Overcast
2:15 PM 44.8 °F 35.9 °F 27.0 °F 50% 30.05 in 10.0 mi NW 24.2 mph 35.7 mph N/A   Overcast
2:35 PM 44.6 °F 35.3 °F 26.8 °F 50% 30.04 in 10.0 mi NW 26.5 mph 36.8 mph N/A   Overcast
2:55 PM 44.6 °F 35.7 °F 26.8 °F 50% 30.04 in 10.0 mi NW 24.2 mph 39.1 mph N/A   Overcast
3:15 PM 44.8 °F 36.6 °F 27.7 °F 51% 30.04 in 10.0 mi NW 20.7 mph 32.2 mph N/A   Overcast
3:35 PM 45.7 °F 37.1 °F 27.1 °F 48% 30.04 in 10.0 mi NW 24.2 mph 38.0 mph N/A   Overcast
3:55 PM 46.0 °F 37.0 °F 26.2 °F 46% 30.04 in 10.0 mi NW 27.6 mph 34.5 mph N/A   Overcast
4:15 PM 47.1 °F - 27.0 °F 46% 30.04 in 10.0 mi NW 21.9 mph 32.2 mph N/A   Overcast
4:35 PM 49.1 °F - 27.1 °F 43% 30.02 in 10.0 mi NW 24.2 mph 35.7 mph N/A   Overcast
4:55 PM 49.3 °F - 27.1 °F 42% 30.03 in 10.0 mi NW 23.0 mph 34.5 mph N/A   Mostly Cloudy
5:15 PM 48.6 °F - 25.9 °F 41% 30.04 in 10.0 mi NW 27.6 mph 35.7 mph N/A   Mostly Cloudy
5:35 PM 47.3 °F - 25.9 °F 43% 30.04 in 10.0 mi NNW 21.9 mph 31.1 mph N/A   Scattered Clouds
5:55 PM 46.6 °F - 26.1 °F 45% 30.04 in 10.0 mi NW 25.3 mph 28.8 mph N/A   Clear
6:15 PM 45.5 °F 37.1 °F 26.2 °F 47% 30.04 in 10.0 mi NW 23.0 mph 28.8 mph N/A   Clear
6:35 PM 45.1 °F 37.3 °F 26.1 °F 47% 30.04 in 10.0 mi NW 19.6 mph 27.6 mph N/A   Scattered Clouds
6:55 PM 44.6 °F 36.4 °F 26.1 °F 48% 30.05 in 10.0 mi NW 20.7 mph 25.3 mph N/A   Mostly Cloudy
7:15 PM 44.1 °F 36.5 °F 26.8 °F 51% 30.06 in 10.0 mi NW 17.3 mph 24.2 mph N/A   Mostly Cloudy
7:35 PM 44.1 °F 36.2 °F 27.3 °F 52% 30.06 in 10.0 mi NW 18.4 mph 23.0 mph N/A   Overcast
7:55 PM 43.9 °F 36.2 °F 27.3 °F 52% 30.06 in 10.0 mi NW 17.3 mph 26.5 mph N/A   Mostly Cloudy
8:15 PM 44.2 °F 36.2 °F 27.3 °F 51% 30.06 in 10.0 mi NW 19.6 mph 26.5 mph N/A   Scattered Clouds
8:35 PM 44.6 °F 35.9 °F 27.1 °F 50% 30.05 in 10.0 mi NNW 23.0 mph 36.8 mph N/A   Mostly Cloudy
8:55 PM 44.2 °F 34.1 °F 27.5 °F 52% 30.05 in 10.0 mi NNW 31.1 mph 44.9 mph N/A   Scattered Clouds
9:15 PM 43.3 °F 33.0 °F 28.2 °F 55% 30.06 in 10.0 mi NNW 29.9 mph 34.5 mph N/A   Clear
9:35 PM 42.4 °F 32.2 °F 28.4 °F 58% 30.06 in 10.0 mi NNW 27.6 mph 34.5 mph N/A   Clear
9:55 PM 42.1 °F 32.3 °F 28.4 °F 58% 30.07 in 10.0 mi NNW 24.2 mph 34.5 mph N/A   Clear
10:15 PM 41.5 °F 32.6 °F 28.9 °F 61% 30.08 in 10.0 mi NNW 19.6 mph 29.9 mph N/A   Clear
10:35 PM 40.1 °F 31.3 °F 28.9 °F 64% 30.09 in 10.0 mi NW 17.3 mph - N/A   Clear
10:55 PM 39.4 °F 30.7 °F 29.1 °F 67% 30.10 in 10.0 mi NW 16.1 mph - N/A   Clear
11:15 PM 39.4 °F 31.1 °F 29.3 °F 67% 30.10 in 10.0 mi NW 15.0 mph 21.9 mph N/A   Clear
11:35 PM 39.2 °F 30.2 °F 29.1 °F 67% 30.08 in 10.0 mi NW 17.3 mph 23.0 mph N/A   Clear
11:55 PM 40.1 °F 31.3 °F 29.3 °F 65% 30.08 in 10.0 mi NW 17.3 mph 23.0 mph N/A   Clear